FENGYUN 1C DEB, 46450

Orbit data source: Space-Track

FENGYUN 1C DEB, 46450 is space debris in SSO originally from a launch on Mon, 10 May 1999 UTC launched from the Taiyaun Space Center, China (TSC). Fengyun 1C debris stems from the Chinese weather satellite Fengyun-1C, which was intentionally destroyed by a Chinese anti-satellite missile in 2007. This event dramatically increased the amount of space debris, with thousands of trackable fragments posing hazards to satellites and human spaceflight. The Fengyun 1C debris cloud has become a focal point in discussions about space sustainability and the need for international regulations to prevent the creation of new debris.

Loading next visibility...
Identifier
46450, 1999-025EZF
Orbit
SSO
Country
Flag of CNCN / PRC
Related business
Manufacturer
Unknown
Mission
Spacecraft
Bus & Motor
Unknown
Mass
Unknown
Launch date (UTC)
1999-05-10 (27 years ago)
Launch vehicle
Unknown
Launch site
Taiyaun Space Center, China (TSC)
Object type
Payload
Rocket body
Debris
Shape & HBR
Unknown shape, 0.1 m
Radar Cross Section
Small (<0.1 m²)

Expand to show TLE details & history
Last TLE update: 20 hours ago

TLE from 20 hours ago
0 FENGYUN 1C DEB
1 46450U 99025EZF 26256.49450696  .00001793  00000-0  97563-3 0  9991
2 46450  98.0648  88.0635 0180222 355.8730   4.0945 14.05394818649769
Epoch: 2026-09-13T11:52Z
TLE epoch observation values (Epoch: 2026-09-13T11:52:05.401Z)
Latitude
0.00003°
Longitude
-82.44736°
Altitude
747.689 km
Speed
7.548 km/s
True Right ascension
05h 52m 15s
True Declination
0° 00' 00"
Sunlit
Object was in daylight at epoch
Visualization orbit readout
Latitude
Unknown
Longitude
Unknown
Altitude
Unknown
Speed
Unknown
Apparent Right ascension
Unknown
Apparent Declination
Unknown
Sunlit
N/A
Visualization observer readout
Local Sidereal Time
00:22:30
Azimuth
Unknown
Elevation
Unknown
Doppler factor
Unknown
Orbital elements
Apogee altitude
1,002.99 km
Perigee altitude
741.652 km
Semi-major axis
7,250.458 km
Eccentricity
0.01802
Inclination
98.0648°
RAAN
88.0635°
Arg. of periapsis
355.873°
True anomaly
4.24534°
Mean anomaly
4.0945°
Eccentric anomaly
4.16958°
Mean motion
3.51556 °/min
Orbital period
102.4 mins
BSTAR
0.00097563
Loading maneuver chart data...
Computing Atmospheric mass density...

Documentation

Showing up to 5 results
|